User: anonymous   Login
Location: Unspecified
(0.0000°N, 0.0000°E)
Time: 20:20:38
(UTC+00:00)
Language:

CP-7 DAVE - Orbit

View from above orbital plane
View from above orbital plane
View from above satellite
View from above satellite

Ground track
Ground track

The orbit data is extracted from the following two-line orbital elements,

1 43615U 18070C   21020.13064305  .00002832  00000-0  69886-4 0  9998
2 43615  93.0251 244.3687 0013076 210.0725 149.9781 15.40516845131811
Epoch (UTC): 20 January 2021 03:08:07
Eccentricity: 0.0013076
inclination: 93.0251°
perigee height: 435 km
apogee height: 453 km
right ascension of ascending node: 244.3687°
argument of perigee: 210.0725°
revolutions per day: 15.40516845
mean anomaly at epoch: 149.9781°
orbit number at epoch: 13181

The dashed part of the orbit path shows where the satellite is in the earth's shadow,  

DLR